Home > Weather > Oranienburg > Past weeks

Flag for Germany Past Weather in Oranienburg, Brandenburg, Germany — Yesterday and Last 2 Weeks

Now
70 °F

Passing clouds.


Feels Like: 70 °F
Forecast: 62 / 77 °F
Wind: 6 mph from Southwest

Location: Berlin-Tegel

Current Time: Jul 30, 2016 at 1:40:06 AM

Latest Report: Jul 30, 2016 at 1:20 AM


Visibility: N/A

Pressure: 29.86 "Hg

Humidity: 69%

Dew Point: 59 °F

Location of OranienburgLocation

Past Weather in Oranienburg — Graph

°F

Oranienburg Temperature Yesterday

Maximum temperature yesterday: 79 °F (at 3:50 PM)
Minimum temperature yesterday: 63 °F (at 5:50 AM)
Average temperature yesterday: 71 °F

High & Low Weather Summary for the Past Weeks

 TemperatureHumidityPressure
High88 °F (Jul 25, 2:20 PM)94% (Jul 27, 4:50 PM)30.24 "Hg (Jul 27, 4:50 PM)
Low48 °F (Jul 16, 5:20 AM)13% (Jul 22, 2:50 PM)29.83 "Hg (Jul 29, 5:20 PM)
Average70 °F62%30.05 "Hg
* Reported Jul 15 12:20 AM — Jul 30 12:20 AM, Oranienburg, Weather by CustomWeather, © 2016

Note: Actual official high and low records may vary slightly from our data, if they occured in-between our weather recording intervals... More about our weather records

Advertising

Oranienburg Weather History for the Previous 24 Hours

Scroll right to see more
 ConditionsComfort  
Time TempWeatherWind HumidityBarometerVisibility
12:20 AM
Sat, Jul 30
70 °FLight rain. Clear.3 mph69%29.86 "HgN/A
11:50 PM
Fri, Jul 29
70 °FClear.6 mph64%29.86 "Hg10 mi
11:20 PM70 °FClear.8 mph64%29.86 "Hg10 mi
10:50 PM70 °FClear.9 mph64%29.86 "Hg10 mi
10:20 PM72 °FClear.10 mph61%29.86 "Hg10 mi
9:50 PM72 °FSunny.8 mph57%29.83 "Hg10 mi
9:20 PM72 °FPassing clouds.3 mph57%29.83 "HgN/A
8:50 PM73 °FSunny.6 mph53%29.83 "Hg10 mi
8:20 PM73 °FSunny.7 mph50%29.83 "Hg10 mi
7:50 PM75 °FSunny.10 mph47%29.83 "Hg10 mi
7:20 PM75 °FSunny.12 mph44%29.83 "Hg10 mi
6:50 PM77 °FSunny.13 mph44%29.83 "Hg10 mi
6:20 PM77 °FScattered clouds.12 mph47%29.83 "HgN/A
5:50 PM77 °FScattered clouds.10 mph47%29.83 "HgN/A
5:20 PM77 °FScattered clouds.12 mph47%29.83 "HgN/A
4:50 PM77 °FScattered clouds.13 mph47%29.86 "HgN/A
4:20 PM77 °FBroken clouds.10 mph47%29.86 "HgN/A
3:50 PM79 °FBroken clouds.14 mph45%29.86 "HgN/A
3:20 PM77 °FBroken clouds.14 mph42%29.86 "HgN/A
2:50 PM77 °FBroken clouds.17 mph36%29.86 "HgN/A
2:20 PM77 °FBroken clouds.9 mph44%29.86 "HgN/A
1:50 PM77 °FBroken clouds.10 mph44%29.86 "HgN/A
1:20 PM75 °FBroken clouds.14 mph47%29.86 "HgN/A
12:50 PM77 °FBroken clouds.13 mph51%29.89 "HgN/A
12:20 PM75 °FScattered clouds.12 mph54%29.89 "HgN/A
11:50 AM72 °FScattered clouds.10 mph61%29.89 "HgN/A
11:20 AM72 °FScattered clouds.10 mph69%29.89 "HgN/A
10:50 AM72 °FPartly sunny.12 mph69%29.89 "HgN/A
10:20 AM70 °FPartly sunny.10 mph73%29.89 "HgN/A
9:50 AM68 °FPartly sunny.9 mph83%29.89 "HgN/A
9:20 AM68 °FPartly sunny.13 mph78%29.89 "HgN/A
8:50 AM68 °FScattered clouds.10 mph78%29.89 "HgN/A
8:20 AM66 °FPassing clouds.9 mph83%29.89 "HgN/A
7:50 AM66 °FScattered clouds.7 mph83%29.89 "HgN/A
7:20 AM64 °FScattered clouds.3 mph88%29.89 "HgN/A
6:50 AM63 °FScattered clouds.3 mph94%29.89 "HgN/A
6:20 AM63 °FPartly cloudy.3 mph88%29.89 "HgN/A
5:50 AM63 °FFog.2 mph94%29.89 "HgN/A
5:20 AM64 °FFog.1 mph88%29.86 "HgN/A
4:50 AM64 °FLight rain. Passing clouds.1 mph88%29.89 "HgN/A
4:20 AM64 °FLight rain. Passing clouds.1 mph88%29.89 "HgN/A
3:50 AM64 °FPartly cloudy.2 mph88%29.89 "HgN/A
3:20 AM64 °FPartly cloudy.2 mph88%29.89 "HgN/A
2:50 AM64 °FLight rain. Overcast.2 mph88%29.89 "HgN/A
2:20 AM64 °FLight rain. Mostly cloudy.3 mph88%29.89 "HgN/A
1:50 AM64 °FLight rain. Passing clouds.5 mph88%29.92 "HgN/A
1:20 AM64 °FThundershowers. Partly cloudy.7 mph88%29.92 "HgN/A
Weather by CustomWeather, © 2016

See weather overviewHow to use our weather pages